Simultaneous Nadir Overpasses (SNOs) Predictions

Prediction of SNOs between TERRA and METOP-C Satellite Orbit:

Table of predicted SNOs for the next 14.0 days since TLE Epoch: 2/8/2020
Index Date (TERRA) Time (TERRA) Lat,Lon (TERRA) SZA (TERRA ) Date (METOP-C) Time (METOP-C) Lat,Lon (METOP-C) SZA (METOP-C ) Distance(km) Time Diff (sec)
1 02/09/2020 03:48:03 81.27, 169.53 98.37 02/09/2020 03:47:11 81.27, 169.50 98.35 0.69 52
2 02/09/2020 04:37:29 -81.29, -22.55 81.61 02/09/2020 04:37:51 -81.28, -22.59 81.60 0.87 22
3 02/11/2020 23:22:22 81.27,-124.12 97.45 02/11/2020 23:21:27 81.27,-124.11 97.43 0.79 55
4 02/12/2020 00:11:48 -81.28, 43.84 82.52 02/12/2020 00:12:07 -81.28, 43.82 82.51 0.26 19
5 02/14/2020 18:56:40 81.28, -57.44 96.55 02/14/2020 18:55:42 81.28, -57.32 96.54 2.00 58
6 02/14/2020 19:46:07 -81.28, 110.18 83.47 02/14/2020 19:46:23 -81.28, 110.24 83.45 1.04 16
7 02/17/2020 14:30:59 81.27, 8.83 95.57 02/17/2020 14:29:59 81.27, 8.69 95.53 2.37 60
8 02/17/2020 15:20:25 -81.27, 176.48 84.45 02/17/2020 15:20:38 -81.28, 176.65 84.42 3.00 13
9 02/20/2020 10:05:16 81.28, 75.43 94.61 02/20/2020 10:04:13 81.28, 75.48 94.58 0.98 63




NCC Satellite Simultaneous Nadir Overpasses (SNOs) Prediction Service
